sat.trackr.live / text

‹ back to catalog

STARLINK-4422

NORAD 53639 · 2022-104BD

PAYLOAD ACTIVE UNKNOWN

§ Identity

Operator
Country
US
Launch date
2022-08-28
Launch site
AFETR
Launch vehicle
Mass (kg)
RCS (m²)

Purposes: comms

External: N2YO · Heavens-Above · Gunter

§ Orbital elements

Epoch: 2026-05-25T04:00:03.998880Z

Period
94.01 min
Inclination
53.2164°
Eccentricity
0.0000379
Mean motion
15.31790993 rev/d
Perigee alt
470.2 km
Apogee alt
470.7 km
Semi-major
6,848.6 km
B*
3.8421e-3
RAAN
237.6725°
Arg perigee
84.6194°
Mean anomaly
344.0052°
Rev number
569

§ Raw data

STARLINK-44221 53639U 22104BD  26145.16671295  .00121153  00000+0  38421-2 0  99922 53639  53.2164 237.6725 0000379  84.6194 344.0052 15.31790993  5697

JSON: /api/v1/satellites/53639 · /tle

For live sub-satellite position, see the globe view (requires WebGL).

§ Visibility from observer

Set your observer location to see the next 7 days of passes ≥ 10°. The values pass through the URL so the page stays shareable.

No JS? Fill the form by hand. The geolocation button needs JavaScript.